METEOR 2-7 DEB, 28388

Orbit data source: Space-Track

METEOR 2-7 DEB, 28388 is space debris in LEO originally from a launch on Thu, 14 May 1981 UTC launched from the Plesetsk Missile And Space Complex (PKMTR). Debris objects in space refer to the collection of defunct objects orbiting the Earth. Examples of debris include non-operational satellites, rocket bodies, and fragments generated from explosions, collisions, or faulty payload assembly.

Loading next visibility...
Identifier
28388, 1981-043E
Orbit
LEO
Country
Flag of CISCIS
Related business
Manufacturer
Unknown
Mission
Spacecraft
Bus & Motor
Unknown
Mass
Unknown
Launch date (UTC)
1981-05-14 (44 years ago)
Launch vehicle
Unknown
Launch site
Plesetsk Missile And Space Complex (PKMTR)
Object type
Payload
Rocket body
Debris
Shape & HBR
Unknown shape, 0.1 m
Radar Cross Section
Small (<0.1 m²)

Expand to show TLE details & history
Last TLE update: 1 day ago

TLE from 1 day ago
0 METEOR 2-7 DEB
1 28388U 81043E   25310.32832822  .00008604  00000-0  21094-2 0  9992
2 28388  81.2665 163.3806 0020668 348.0064  12.0635 14.52237615615682
Epoch: 2025-11-06T07:52Z
TLE epoch observation values (Epoch: 2025-11-06T07:52:47.558Z)
Latitude
-0.00001°
Longitude
-0.60578°
Altitude
706.963 km
Speed
7.51 km/s
True Right ascension
10h 53m 31s
True Declination
0° 00' 00"
Sunlit
Object was in daylight at epoch
Visualization orbit readout
Latitude
Unknown
Longitude
Unknown
Altitude
Unknown
Speed
Unknown
Apparent Right ascension
Unknown
Apparent Declination
Unknown
Sunlit
N/A
Visualization observer readout
Local Sidereal Time
08:09:20
Azimuth
Unknown
Elevation
Unknown
Doppler factor
Unknown
Orbital elements
Apogee altitude
730.127 km
Perigee altitude
700.805 km
Semi-major axis
7,093.603 km
Eccentricity
0.00207
Inclination
81.2665°
RAAN
163.3806°
Arg. of periapsis
348.0064°
True anomaly
12.11312°
Mean anomaly
12.0635°
Eccentric anomaly
12.0883°
Mean motion
3.63281 °/min
Orbital period
99.1 mins
BSTAR
0.0021094
Loading maneuver chart data...
Computing Atmospheric mass density...
Loading historical data...
Loading historical data...
Loading historical data...
Loading historical data...
Loading historical data...
Loading historical data...
Loading historical data...

Documentation

Showing up to 5 results
|